This demonstration page uses our WeatherBlox Daily Observations layout. Learn more.

Left ArrowRight Arrow

44.89941, -97.11507

Hourly Observations for June 6, 2016

Temp ( °F °C ) Dew Point ( °F °C ) Humidity (%) Winds ( mph kmh ) Pressure ( in mb ) Visibility ( mi km ) Precip ( " mm )
12:53 am 00:53 Clear 61 16.1 45 7.2 56 56 W 8 13 29.79 1009 10 16 0.00 0.00
1:53 am 01:53 Clear 61 16.1 45 7.2 56 56 WNW 8 13 29.78 1009 10 16 0.00 0.00
2:53 am 02:53 Clear 60 15.6 46 7.8 60 60 WNW 9 15 29.79 1009 10 16 0.00 0.00
3:53 am 03:53 Clear 58 14.4 46 7.8 65 65 W 9 15 29.80 1009 10 16 0.00 0.00
4:53 am 04:53 Clear 57 13.9 46 7.8 67 67 NW 10 17 29.81 1010 10 16 0.00 0.00
5:53 am 05:53 Sunny 55 12.8 46 7.8 72 72 NW 9 15 29.83 1010 10 16 0.00 0.00
6:53 am 06:53 Sunny 56 13.3 48 8.9 75 75 NNW 13 20 29.85 1011 10 16 0.00 0.00
7:53 am 07:53 Sunny 58 14.4 48 8.9 70 70 NW 12 19 29.86 1011 10 16 0.00 0.00
8:53 am 08:53 Sunny 62 16.7 48 8.9 60 60 N 13 20 29.87 1012 10 16 0.00 0.00
9:53 am 09:53 Partly Cloudy 63 17.2 48 8.9 58 58 N 18 30 29.90 1013 10 16 0.00 0.00
10:53 am 10:53 Mostly Sunny 62 16.7 47 8.3 58 58 NNW 23 37 29.91 1013 10 16 0.00 0.00
11:53 am 11:53 Mostly Cloudy 63 17.2 47 8.3 56 56 NNW 17 28 29.92 1013 10 16 0.00 0.00
12:53 pm 12:53 Mostly Cloudy 64 17.8 47 8.3 54 54 NNW 20 31 29.94 1014 10 16 0.00 0.00
1:53 pm 13:53 Mostly Cloudy 66 18.9 48 8.9 52 52 NNW 18 30 29.95 1014 10 16 0.00 0.00
2:53 pm 14:53 Mostly Cloudy 67 19.4 49 9.4 53 53 NNW 20 31 29.95 1014 10 16 0.00 0.00
3:53 pm 15:53 Partly Cloudy 68 20 48 8.9 49 49 NNW 18 30 29.96 1014 10 16 0.00 0.00
4:53 pm 16:53 Partly Cloudy 67 19.4 48 8.9 51 51 N 20 31 29.96 1015 10 16 0.00 0.00
5:53 pm 17:53 Mostly Cloudy 68 20 49 9.4 51 51 N 18 30 29.95 1014 10 16 0.00 0.00
6:53 pm 18:53 Cloudy 66 18.9 48 8.9 52 52 N 17 28 29.95 1014 10 16 0.00 0.00
7:53 pm 19:53 Partly Cloudy 65 18.3 48 8.9 54 54 N 15 24 29.96 1015 10 16 0.00 0.00
8:53 pm 20:53 Sunny 61 16.1 47 8.3 60 60 N 10 17 29.96 1015 10 16 0.00 0.00
9:53 pm 21:53 Clear 56 13.3 46 7.8 70 70 N 9 15 29.97 1015 10 16 0.00 0.00
10:53 pm 22:53 Clear 53 11.7 46 7.8 77 77 N 7 11 29.99 1016 10 16 0.00 0.00
11:53 pm 23:53 Clear 50 10 45 7.2 83 83 N 7 11 30.00 1016 10 16 0.00 0.00

Powered by AerisWeather